Total_Precipitation_Accumulation
1.68 1.74 1.93 2.11 2.17 2.25 2.40 2.33 2.26 2.28 2.40 2.49 2.52 2.52 2.43 2.32 2.45 2.69 2.75 2.97 3.07 3.12 3.09 3.16 3.14 3.27 3.30 3.23 3.39 3.51 3.74 3.94 3.46 2.76 2.83 2.98 2.95 2.74 2.57 2.37 2.24 2.20 2.15
1.61 1.73 1.94 2.08 2.13 2.21 2.26 2.36 2.40 2.38 2.47 2.55 2.57 2.53 2.32 2.29 2.43 2.53 2.64 2.84 2.94 3.05 3.21 3.34 3.06 3.21 3.34 3.28 3.33 3.29 3.42 3.77 3.56 3.27 3.18 3.23 3.19 2.91 2.70 2.45 2.07 1.86 1.92
1.79 1.85 1.85 1.92 1.96 2.04 2.15 2.24 2.36 2.44 2.50 2.54 2.55 2.45 2.37 2.42 2.53 2.61 2.72 2.87 2.91 3.00 3.18 3.14 3.02 3.20 3.07 3.20 3.29 3.18 3.19 3.24 3.39 3.24 2.98 3.06 2.99 2.81 2.67 2.38 2.11 2.07 1.80
1.75 1.81 1.84 1.87 1.97 2.12 2.25 2.34 2.40 2.38 2.39 2.36 2.31 2.38 2.45 2.48 2.53 2.59 2.62 2.67 2.69 2.76 2.77 2.66 2.57 2.62 2.69 2.92 2.90 2.88 2.99 3.11 3.21 3.06 2.90 2.94 2.95 2.98 2.86 2.53 2.39 2.23 2.00
1.74 1.71 1.82 2.02 2.11 2.19 2.19 2.21 2.27 2.26 2.14 2.30 2.30 2.38 2.44 2.39 2.27 2.42 2.47 2.42 2.60 2.52 2.38 2.32 2.31 2.42 2.49 2.59 2.41 2.51 2.76 2.83 2.90 2.99 2.95 3.07 3.05 3.20 3.04 2.75 2.63 2.53 2.24
1.72 1.81 1.91 1.99 1.98 2.07 2.10 2.10 2.13 2.18 2.25 2.30 2.30 2.40 2.44 2.25 2.38 2.45 2.49 2.50 2.54 2.45 2.41 2.31 2.18 2.21 2.25 2.29 2.26 2.29 2.49 2.61 2.76 2.95 2.93 2.99 3.04 3.06 3.09 2.96 2.86 2.67 2.35
1.71 1.77 2.00 2.12 2.03 2.11 2.14 2.17 2.18 2.22 2.37 2.44 2.52 2.56 2.48 2.59 2.61 2.42 2.45 2.42 2.47 2.47 2.47 2.44 2.12 1.92 2.16 2.10 2.22 2.16 2.09 2.19 2.31 2.47 2.53 2.61 2.87 3.01 3.17 3.09 3.14 2.99 2.62
1.83 1.97 2.28 2.44 2.28 2.28 2.31 2.34 2.41 2.54 2.59 2.65 2.67 2.57 2.53 2.62 2.67 2.32 2.26 2.16 2.20 2.28 2.31 2.37 2.41 2.32 2.30 2.33 2.35 2.27 2.10 2.05 2.19 2.17 2.13 2.35 2.75 3.13 3.24 3.20 3.31 3.17 2.78
2.06 2.22 2.50 2.75 2.85 2.79 2.62 2.68 2.77 2.78 2.74 2.80 2.85 2.83 2.69 2.74 2.67 2.28 2.16 2.00 2.05 2.08 2.13 2.13 2.18 2.11 2.19 2.13 2.07 2.01 1.95 1.86 1.86 1.90 1.88 2.00 2.32 2.77 3.03 3.09 3.23 3.19 2.90
2.21 2.25 2.48 2.77 2.89 2.88 2.85 3.02 3.12 2.99 2.88 2.90 2.77 2.65 2.53 2.56 2.59 2.23 2.02 1.87 1.96 2.02 2.11 2.07 2.05 1.96 1.96 1.87 1.77 1.77 1.69 1.69 1.83 1.87 1.82 1.78 1.89 2.23 2.64 2.65 2.77 2.96 2.72
2.37 2.37 2.49 2.75 3.07 3.03 3.10 3.18 3.23 3.20 3.22 3.19 3.06 2.93 2.74 2.65 2.67 2.34 2.11 1.89 1.90 1.94 1.85 1.80 1.82 1.84 1.66 1.62 1.60 1.58 1.64 1.71 1.85 1.88 1.86 1.87 1.94 2.04 2.17 2.28 2.43 2.57 2.57
2.50 2.49 2.57 2.85 2.97 3.01 3.16 3.22 3.33 3.46 3.45 3.38 3.32 3.04 2.91 2.79 2.50 2.22 2.04 2.00 2.05 2.06 1.95 1.87 1.89 1.82 1.62 1.57 1.41 1.37 1.51 1.51 1.48 1.61 1.66 1.66 1.74 1.81 1.92 2.13 2.35 2.48 2.53
2.29 2.32 2.44 2.61 2.75 2.91 3.03 2.98 3.07 3.21 3.16 3.12 3.05 2.87 2.86 2.94 2.74 2.30 1.99 1.92 2.01 2.04 2.10 2.17 1.99 1.83 1.71 1.61 1.58 1.52 1.43 1.33 1.38 1.45 1.48 1.46 1.56 1.73 1.96 2.20 2.40 2.67 2.64
2.14 2.14 2.28 2.51 2.67 2.77 2.85 2.80 2.85 2.86 2.89 2.92 2.90 2.79 2.78 2.90 2.86 2.53 2.19 1.98 1.92 1.88 1.89 1.90 1.81 1.78 1.70 1.55 1.52 1.43 1.29 1.31 1.37 1.37 1.44 1.52 1.66 1.88 2.01 2.01 2.14 2.41 2.61
2.29 2.28 2.42 2.52 2.58 2.73 2.80 2.82 2.84 2.79 2.78 2.79 2.73 2.64 2.63 2.71 2.76 2.58 2.28 2.07 1.99 1.96 1.92 1.87 1.83 1.88 1.78 1.67 1.58 1.56 1.59 1.61 1.53 1.46 1.53 1.65 1.71 1.82 1.95 2.01 2.09 2.16 2.20
2.49 2.47 2.44 2.39 2.46 2.44 2.46 2.44 2.44 2.40 2.40 2.37 2.33 2.23 2.16 2.33 2.36 2.07 1.91 1.92 1.95 1.95 1.82 1.76 1.84 1.90 1.88 1.84 1.78 1.71 1.70 1.70 1.65 1.63 1.66 1.73 1.82 1.91 1.99 2.11 2.25 2.27 2.15
2.60 2.48 2.36 2.26 2.24 2.25 2.30 2.34 2.37 2.29 2.23 2.15 2.07 1.92 1.78 1.98 2.04 1.89 1.79 1.78 1.75 1.73 1.63 1.65 1.71 1.83 1.92 1.86 1.77 1.70 1.66 1.68 1.77 1.77 1.77 1.83 1.94 2.04 2.12 2.16 2.31 2.46 2.40
2.62 2.50 2.29 2.16 2.13 2.11 2.24 2.32 2.29 2.26 2.20 1.99 1.86 1.80 1.66 1.72 1.82 1.79 1.73 1.59 1.49 1.45 1.43 1.56 1.68 1.76 1.86 1.84 1.75 1.75 1.78 1.81 1.81 1.82 1.88 1.97 2.05 2.11 2.16 2.19 2.28 2.43 2.45
2.50 2.42 2.30 2.25 2.24 2.15 2.11 2.17 2.16 2.13 2.16 2.06 1.87 1.83 1.84 1.80 1.86 1.82 1.66 1.44 1.46 1.48 1.48 1.52 1.57 1.66 1.72 1.75 1.79 1.84 1.89 1.94 1.91 1.95 2.05 2.16 2.16 2.23 2.18 2.21 2.36 2.57 2.59
2.16 2.20 2.18 2.23 2.22 2.16 2.16 2.18 2.23 2.28 2.29 2.18 2.01 1.90 1.81 1.78 1.77 1.77 1.63 1.53 1.52 1.50 1.51 1.58 1.65 1.70 1.75 1.80 1.92 2.03 2.06 2.11 2.14 2.17 2.24 2.28 2.21 2.22 2.23 2.26 2.36 2.43 2.48
1.91 1.86 1.85 1.82 1.86 1.98 2.05 2.15 2.27 2.33 2.36 2.25 2.02 1.86 1.77 1.60 1.61 1.58 1.60 1.65 1.65 1.68 1.73 1.76 1.82 1.89 1.93 2.00 2.09 2.19 2.25 2.25 2.30 2.27 2.28 2.38 2.38 2.37 2.41 2.35 2.32 2.42 2.47
1.97 1.79 1.63 1.59 1.64 1.80 2.02 2.16 2.24 2.19 2.14 2.09 1.99 1.92 1.94 1.67 1.53 1.52 1.56 1.59 1.62 1.67 1.71 1.74 1.75 1.81 1.89 1.97 2.03 2.10 2.16 2.20 2.23 2.25 2.23 2.25 2.26 2.25 2.32 2.33 2.30 2.41 2.55
1.78 1.59 1.42 1.41 1.50 1.68 1.92 2.24 2.25 2.03 1.90 1.86 1.92 1.93 1.90 1.82 1.71 1.64 1.64 1.62 1.58 1.54 1.56 1.65 1.68 1.72 1.81 1.84 1.86 1.93 1.97 2.00 2.03 2.10 2.17 2.15 2.17 2.20 2.25 2.31 2.33 2.39 2.50
1.62 1.48 1.37 1.36 1.43 1.58 1.85 2.16 2.09 1.93 1.82 1.82 1.87 1.90 1.88 1.85 1.78 1.73 1.71 1.70 1.64 1.57 1.54 1.60 1.64 1.65 1.71 1.78 1.76 1.72 1.70 1.71 1.73 1.87 2.04 2.16 2.20 2.25 2.23 2.26 2.33 2.34 2.46
1.51 1.48 1.43 1.46 1.53 1.69 1.97 2.16 2.07 1.95 1.89 1.87 1.87 1.94 1.94 1.89 1.85 1.84 1.86 1.90 1.86 1.83 1.74 1.62 1.58 1.55 1.53 1.59 1.65 1.65 1.72 1.63 1.55 1.57 1.68 1.89 1.97 2.06 2.10 2.16 2.31 2.39 2.46
1.51 1.52 1.52 1.57 1.64 1.78 1.94 2.00 1.98 1.93 1.96 1.93 1.91 1.94 2.02 2.04 2.02 2.03 2.04 1.99 1.92 1.84 1.72 1.59 1.51 1.51 1.50 1.44 1.40 1.41 1.44 1.39 1.37 1.44 1.46 1.52 1.66 1.79 1.95 2.06 2.14 2.24 2.29